Location: Caltech
(34.1382°N, 118.1253°W)
Time: 06:56:33
(UTC-07:00)

Saudisat 1A - Visible Passes

Search period start: 28 March 2017 00:00
Search period end: 07 April 2017 00:00
Orbit: 571 x 622 km, 64.6° (Epoch: 26 March)

Date Brightness Start Highest point End Pass type
(mag) Time Alt. Az. Time Alt. Az. Time Alt. Az.
28 Mar 10.8 03:44:37 14° E 03:44:37 14° E 03:46:01 10° ENE visible
28 Mar 8.4 05:21:17 36° W 05:22:28 45° WNW 05:26:49 10° NNE visible
29 Mar 10.3 03:54:50 23° ENE 03:54:50 23° ENE 03:57:06 10° NE visible
29 Mar 9.3 05:31:31 23° WNW 05:32:36 25° NW 05:36:22 10° N visible
30 Mar 9.7 04:04:58 32° NE 04:04:58 32° NE 04:07:31 10° NE visible
30 Mar 9.9 05:41:37 14° WNW 05:42:52 15° NW 05:45:28 10° NNW visible
31 Mar 9.5 04:14:59 34° NNE 04:14:59 34° NNE 04:17:35 10° NNE visible
01 Apr 9.6 04:24:56 27° N 04:24:56 27° N 04:27:22 10° NNE visible
02 Apr 10.0 04:34:49 19° NNW 04:34:49 19° NNW 04:36:51 10° N visible
03 Apr 11.2 03:08:00 11° NE 03:08:00 11° NE 03:08:12 10° NE visible
03 Apr 10.4 04:44:39 12° NNW 04:44:39 12° NNW 04:45:46 10° NNW visible
04 Apr 11.0 03:17:46 12° NNE 03:17:46 12° NNE 03:18:12 10° NNE visible
05 Apr 10.9 03:27:30 12° N 03:27:30 12° N 03:27:55 10° N visible
06 Apr 11.0 03:37:11 11° N 03:37:11 11° N 03:37:18 10° N visible
